This demonstration page uses our WeatherBlox Daily Observations layout. Learn more.

Left ArrowRight Arrow

Hourly Observations for May 3, 2018

Temp ( °F °C ) Dew Point ( °F °C ) Humidity (%) Winds ( mph kmh ) Pressure ( in mb ) Visibility ( mi km ) Precip ( " mm )
12:15 am 00:15 Cloudy 54 12 49 9.3 84 84 NE 16 26 29.88 1012 10 16.0934 0 0
12:35 am 00:35 Cloudy 53 11.8 49 9.6 87 87 ENE 12 19 29.85 1011 10 16.0934 0 0
12:55 am 00:55 Cloudy 52 11.3 49 9.6 89 89 ENE 16 26 29.88 1012 10 16.0934 0 0
1:15 am 01:15 Mostly Cloudy 52 11.1 49 9.3 89 89 E 12 19 29.88 1012 10 16.0934 0 0
1:30 am 01:30 Mostly Cloudy 53 11.4 49 9.2 86 86 E 10 17 29.85 1011 10 16.0934 0 0
1:55 am 01:55 Partly Cloudy 51 10.5 48 8.8 89 89 E 10 17 29.85 1011 10 16.0934 0 0
2:15 am 02:15 Mostly Cloudy 50 10.1 48 8.7 91 91 ESE 3 6 29.85 1011 10 16.0934 0 0
2:35 am 02:35 Cloudy 50 10.1 48 8.9 92 92 NE 3 6 29.83 1010 10 16.0934 0 0
2:55 am 02:55 Cloudy 50 10.2 48 9 92 92 NE 5 7 29.85 1011 10 16.0934 0 0
3:15 am 03:15 Cloudy 51 10.3 48 9 92 92 N 5 7 29.85 1011 10 16.0934 0 0
3:35 am 03:35 Cloudy 51 10.3 48 9 92 92 N 6 9 29.85 1011 10 16.0934 0 0
3:55 am 03:55 Cloudy 51 10.6 49 9.2 91 91 N 8 13 29.88 1012 10 16.0934 0 0
4:15 am 04:15 Cloudy 51 10.8 49 9.3 91 91 N 10 17 29.85 1011 10 16.0934 0 0
4:35 am 04:35 Cloudy with Light Rain 51 10.7 48 8.8 88 88 N 12 19 29.85 1011 10 16.0934 0 0
4:55 am 04:55 Cloudy with Light Rain 51 10.5 48 8.7 89 89 N 7 11 29.85 1011 10 16.0934 0 0
5:15 am 05:15 Cloudy with Drizzle 51 10.3 48 9.1 92 92 NNE 10 17 29.85 1011 5 8.0467 0 0
5:35 am 05:35 Cloudy 50 10.1 49 9.6 97 97 N 7 11 29.85 1011 7 11.26538 0 0
5:55 am 05:55 Cloudy 50 10.1 49 9.6 97 97 N 7 11 29.85 1011 7 11.26538 0 0
6:15 am 06:15 Cloudy with Mist and Fog 50 10.1 49 9.7 97 97 NNE 6 9 29.85 1011 5 8.0467 0 0
6:35 am 06:35 Cloudy 50 10 49 9.6 97 97 NE 9 15 29.85 1011 7 11.26538 0 0
6:55 am 06:55 Cloudy with Mist and Fog 50 10 49 9.7 98 98 NE 6 9 29.85 1011 5 8.0467 0 0
7:15 am 07:15 Cloudy with Mist and Fog 50 10.1 50 9.8 98 98 NNE 10 17 29.83 1010 5 8.0467 0 0
7:35 am 07:35 Cloudy with Mist and Fog 50 10.1 50 10 99 99 NE 18 30 29.8 1009 4 6.43736 0 0
7:55 am 07:55 Cloudy with Mist and Fog 50 10.1 50 10.1 100 100 NE 20 31 29.8 1009 2.5 4.02335 0 0
8:15 am 08:15 Cloudy with Mist and Fog 50 10.1 50 10.1 100 100 E 24 39 29.77 1008 3 4.82802 0 0
8:35 am 08:35 Cloudy with Mist and Fog 51 10.4 51 10.4 100 100 E 16 26 29.8 1009 3 4.82802 0 0
8:55 am 08:55 Cloudy with Mist and Fog 51 10.8 51 10.8 100 100 ENE 15 24 29.77 1008 3 4.82802 0 0
9:15 am 09:15 Cloudy with Nearby Thunderstorms 52 11.2 52 11.1 99 99 ENE 15 24 29.77 1008 4 6.43736 0 0
9:35 am 09:35 Cloudy with Mist and Fog 53 11.5 52 11.3 99 99 E 18 30 29.77 1008 4 6.43736 0 0
9:55 am 09:55 Cloudy with Mist and Fog 53 11.5 53 11.4 99 99 E 16 26 29.77 1008 3 4.82802 0 0
10:15 am 10:15 Cloudy with Mist and Fog 53 11.5 53 11.5 100 100 NE 10 17 29.77 1008 3 4.82802 0 0
10:35 am 10:35 Cloudy with Mist and Fog 53 11.7 53 11.7 100 100 NE 12 19 29.77 1008 3 4.82802 0 0
10:55 am 10:55 Cloudy with Mist and Fog 53 11.8 53 11.8 100 100 E 5 7 29.77 1008 3 4.82802 0 0
11:15 am 11:15 Cloudy with Rain 54 12 54 12 100 100 Calm 29.8 1009 1.75 2.816345 0.03 0.762
11:35 am 11:35 Cloudy with Mist and Fog 55 12.6 55 12.6 100 100 W 3 6 29.8 1009 4 6.43736 0.04 1.016
11:55 am 11:55 Cloudy 55 12.9 55 12.5 97 97 WNW 7 11 29.8 1009 7 11.26538 0.04 1.016
12:15 pm 12:15 Cloudy 55 12.9 54 12.3 96 96 Calm 29.77 1008 7 11.26538 0 0
12:35 pm 12:35 Cloudy 56 13.5 55 12.6 94 94 NNW 8 13 29.77 1008 10 16.0934 0 0
12:55 pm 12:55 Cloudy 56 13.2 54 12.2 94 94 NNW 9 15 29.77 1008 10 16.0934 0 0
1:15 pm 13:15 Cloudy 56 13.1 54 12.3 95 95 N 10 17 29.77 1008 10 16.0934 0 0
1:35 pm 13:35 Cloudy 55 13 53 11.7 92 92 N 13 20 29.77 1008 10 16.0934 0 0
1:55 pm 13:55 Cloudy 55 12.9 53 11.5 91 91 N 14 22 29.77 1008 10 16.0934 0 0
2:15 pm 14:15 Cloudy 55 12.8 53 11.7 93 93 N 16 26 29.77 1008 10 16.0934 0 0
2:35 pm 14:35 Cloudy 55 12.8 53 11.7 93 93 N 16 26 29.8 1009 7 11.26538 0 0
2:55 pm 14:55 Cloudy 56 13.2 52 11.3 88 88 N 21 33 29.8 1009 10 16.0934 0 0
3:15 pm 15:15 Cloudy 57 14.1 53 11.6 85 85 NNE 20 31 29.8 1009 10 16.0934 0 0
3:35 pm 15:35 Cloudy 56 13.6 53 11.5 87 87 NNE 22 35 29.8 1009 10 16.0934 0 0
3:55 pm 15:55 Cloudy 56 13.1 51 10.4 84 84 NNE 23 37 29.8 1009 10 16.0934 0 0
4:15 pm 16:15 Cloudy 56 13.2 50 10.2 82 82 NNE 21 33 29.8 1009 10 16.0934 0 0
4:35 pm 16:35 Cloudy 56 13.2 50 10.2 82 82 NNE 15 24 29.8 1009 10 16.0934 0 0
4:55 pm 16:55 Cloudy 56 13.2 49 9.6 79 79 NNE 21 33 29.83 1010 10 16.0934 0 0
5:15 pm 17:15 Cloudy 55 12.9 49 9.6 81 81 NNE 17 28 29.83 1010 10 16.0934 0 0
5:35 pm 17:35 Cloudy 56 13.3 49 9.6 78 78 NNE 20 31 29.83 1010 10 16.0934 0 0
5:55 pm 17:55 Mostly Cloudy 57 13.7 49 9.6 76 76 NNE 20 31 29.83 1010 10 16.0934 0 0
6:15 pm 18:15 Cloudy 56 13.2 49 9.5 78 78 N 18 30 29.85 1011 10 16.0934 0 0
6:35 pm 18:35 Cloudy 55 13 49 9.3 78 78 N 15 24 29.85 1011 10 16.0934 0 0
6:55 pm 18:55 Cloudy 55 13 49 9.5 79 79 N 10 17 29.85 1011 10 16.0934 0 0
7:15 pm 19:15 Cloudy 55 13 49 9.5 79 79 N 9 15 29.88 1012 10 16.0934 0 0
7:35 pm 19:35 Cloudy 55 12.5 49 9.5 82 82 N 14 22 29.88 1012 10 16.0934 0 0
7:55 pm 19:55 Cloudy 54 12.3 49 9.5 83 83 N 12 19 29.91 1013 10 16.0934 0 0
8:15 pm 20:15 Cloudy 54 12.2 49 9.5 84 84 N 9 15 29.91 1013 10 16.0934 0 0
8:35 pm 20:35 Cloudy 54 12.2 49 9.7 85 85 N 8 13 29.91 1013 10 16.0934 0 0
8:55 pm 20:55 Cloudy 54 12 49 9.7 86 86 N 5 7 29.97 1015 10 16.0934 0 0
9:15 pm 21:15 Cloudy 54 12 50 9.8 87 87 N 5 7 29.97 1015 10 16.0934 0 0
9:35 pm 21:35 Cloudy 53 11.8 49 9.7 87 87 Calm 29.97 1015 10 16.0934 0 0
9:55 pm 21:55 Cloudy 53 11.5 49 9.7 89 89 N 3 6 29.97 1015 10 16.0934 0 0
10:15 pm 22:15 Cloudy 53 11.5 50 10 91 91 NNW 7 11 30 1016 10 16.0934 0 0
10:35 pm 22:35 Cloudy 53 11.5 49 9.7 89 89 NW 7 11 30 1016 10 16.0934 0 0
10:55 pm 22:55 Cloudy 52 11.1 49 9.5 90 90 NW 7 11 30.03 1017 10 16.0934 0 0
11:15 pm 23:15 Cloudy 51 10.7 48 9.1 90 90 NW 5 7 30.03 1017 10 16.0934 0 0
11:35 pm 23:35 Cloudy 50 10.2 48 8.8 91 91 NW 9 15 30.03 1017 10 16.0934 0 0
11:55 pm 23:55 Partly Cloudy 50 9.8 47 8.2 90 90 WNW 9 15 30.03 1017 10 16.0934 0 0

Powered by AerisWeather